FW1153 Weather Reports


time (UTC)temp
F
wind
direction
speed
knots
gust
knots
rain 1hr
in
rain 24hr
in
rain mn
in
humidity
%
barometer
mb
20260502151528 53 209 1.7 3.5 0.00 0.00 0.00 46 1019.1
20260502123008 36 243 0.0 4.3 0.00 0.00 0.00 67 1019.4
20260502121524 35 243 3.5 6.1 0.00 0.00 0.00 70 1019.3
20260502114506 34 243 0.9 6.1 0.00 0.00 0.00 71 1019.1
20260502113002 35 243 1.7 3.5 0.00 0.00 0.00 70 1019.2
20260502111623 35 243 0.0 2.6 0.00 0.00 0.00 71 1019.3
20260502110059 37 243 2.6 3.5 0.00 0.00 0.00 70 1019.5
20260502104659 36 243 2.6 3.5 0.00 0.00 0.00 72 1019.5
20260502103108 34 243 1.7 3.5 0.00 0.00 0.00 75 1019.5
20260502101609 37 243 1.7 2.6 0.00 0.00 0.00 71 1019.5
20260502071529 43 243 1.7 2.6 0.00 0.00 0.00 56 1019.8
20260502070026 43 243 0.0 0.9 0.00 0.00 0.00 54 1019.9
20260502064523 43 243 0.0 0.9 0.00 0.00 0.00 53 1019.7
20260502063028 43 243 0.9 4.3 0.00 0.00 0.00 53 1019.7
20260502061520 43 248 3.5 4.3 0.00 0.00 0.00 54 1019.6
20260502060020 44 248 0.0 0.0 0.00 0.00 0.00 54 1019.5
20260502054524 45 248 0.0 1.7 0.00 0.00 0.00 51 1019.5
20260502053015 46 248 2.6 4.3 0.00 0.00 0.00 49 1019.5
20260502051514 47 248 1.7 3.5 0.00 0.00 0.00 49 1019.4
20260502050014 48 248 1.7 3.5 0.00 0.00 0.00 50 1019.4
20260502044515 48 248 0.9 2.6 0.00 0.00 0.00 50 1019.4
20260502043014 48 248 0.9 3.5 0.00 0.00 0.00 51 1019.4
20260502041515 47 251 2.6 3.5 0.00 0.00 0.00 53 1019.4
20260502040013 48 260 0.0 6.1 0.00 0.00 0.00 53 1019.3
20260502034513 48 349 3.5 4.3 0.00 0.00 0.00 55 1019.1
20260502033013 51 348 0.9 1.7 0.00 0.00 0.00 50 1019.1
20260502031513 54 348 0.9 3.5 0.00 0.00 0.00 45 1019.0
20260502030011 55 348 3.5 4.3 0.00 0.00 0.00 37 1018.9
20260502024510 56 348 0.9 3.5 0.00 0.00 0.00 32 1018.7
20260502023010 57 348 1.7 3.5 0.00 0.00 0.00 31 1018.6
20260502021514 62 349 0.9 3.5 0.00 0.00 0.00 26 1018.4
20260502020008 64 348 1.7 4.3 0.00 0.00 0.00 22 1018.4
20260502014514 66 348 2.6 4.3 0.00 0.00 0.00 21 1018.3
20260502013007 66 348 3.5 7.0 0.00 0.00 0.00 21 1018.4
20260502011506 67 331 3.5 7.8 0.00 0.00 0.00 21 1018.4
20260502010008 67 313 4.3 8.7 0.00 0.00 0.00 20 1018.5
20260502004506 68 292 2.6 8.7 0.00 0.00 0.00 20 1018.6
20260502003006 68 347 6.1 10.4 0.00 0.00 0.00 19 1018.7
20260502001502 67 281 5.2 11.3 0.00 0.00 0.00 19 1018.6
20260502000002 68 360 2.6 9.6 0.00 0.00 0.00 18 1018.7
20260501234503 68 350 7.8 12.2 0.00 0.00 0.00 18 1018.7
20260501233001 69 19 2.6 8.7 0.00 0.00 0.00 18 1018.8
20260501231606 68 355 7.0 13.0 0.00 0.00 0.00 19 1018.7
20260501224558 68 33 3.5 8.7 0.00 0.00 0.00 18 1019.0
20260501223106 68 19 4.3 13.9 0.00 0.00 0.00 18 1019.2
20260501221554 67 63 4.3 8.7 0.00 0.00 0.00 19 1019.2
20260501220058 67 306 6.1 12.2 0.00 0.00 0.00 21 1019.5
20260501214551 67 331 2.6 10.4 0.00 0.00 0.00 20 1019.5
20260501213106 67 309 0.9 8.7 0.00 0.00 0.00 22 1019.8
20260501211546 67 271 5.2 9.6 0.00 0.00 0.00 22 1020.0
20260501210045 67 67 4.3 13.0 0.00 0.00 0.00 22 1020.2
20260501204547 67 15 9.6 13.0 0.00 0.00 0.00 22 1020.3
20260501203041 65 349 2.6 9.6 0.00 0.00 0.00 24 1020.4
20260501201538 65 326 6.1 11.3 0.00 0.00 0.00 25 1020.5
20260501200036 64 279 5.2 12.2 0.00 0.00 0.00 26 1020.7
20260501194540 65 350 2.6 14.8 0.00 0.00 0.00 25 1020.9
20260501193033 64 19 7.8 12.2 0.00 0.00 0.00 26 1021.0
20260501191533 64 24 7.0 13.0 0.00 0.00 0.00 26 1021.2
20260501190029 63 311 7.0 13.9 0.00 0.00 0.00 27 1021.4
20260501184527 62 36 4.3 13.0 0.00 0.00 0.00 28 1021.5
20260501183025 62 321 7.8 12.2 0.00 0.00 0.00 29 1021.7
20260501181522 61 343 2.6 14.8 0.00 0.00 0.00 29 1021.8
20260501180029 59 197 0.9 7.0 0.00 0.00 0.00 33 1022.0
20260501174522 59 355 1.7 7.0 0.00 0.00 0.00 33 1022.2
20260501173016 58 133 0.0 7.8 0.00 0.00 0.00 34 1022.4
20260501171512 56 167 2.6 6.1 0.00 0.00 0.00 35 1022.5
20260501170010 55 202 0.0 4.3 0.00 0.00 0.00 35 1022.8
20260501164513 54 209 1.7 5.2 0.00 0.00 0.00 40 1023.0
20260501163008 54 215 0.9 3.5 0.00 0.00 0.00 41 1023.1
20260501161500 52 216 0.9 3.5 0.00 0.00 0.00 43 1023.2